Station Historical Data
Daily Summary for July 15, 2017 Units:  Metric    English   Both
« Previous Day
Next Day »
Daily Weekly Monthly Yearly Custom
  High: Low: Average:
Temperature: 29.9 °C 22.3 °C 24.4 °C
Dew Point: 24.1 °C 20.2 °C 21.5 °C
Humidity: 91% 66% 84%
Wind Speed: 13.2km/h 0km/h 7.1km/h
Wind Gust: 13.2km/h - -
Wind- - ESE
Pressure: 1019.9 hPa 1015.5 hPa -
Precipitation: 0 mm    
Historical Graphs
 
 
Tabular Data for July 15, 2017
Time Temperature Dew Point Pressure Wind Wind Speed Wind Gust Humidity Rainfall Rate (Hourly) solar Conditions
00:00 23.2 °C 20.9 °C 1019.9 hPa NE 7.4 km/h   87% 0 mm WeatherDisplay:10.37 W/m2 BKN
00:05 23.2 °C 20.9 °C 1019.9 hPa NE 7.4 km/h   87% 0 mm WeatherDisplay:10.37 W/m2 BKN
00:10 23.1 °C 20.8 °C 1019.9 hPa NE 7.4 km/h   87% 0 mm WeatherDisplay:10.37 W/m2 BKN
00:15 23.1 °C 20.8 °C 1019.9 hPa NE 7.4 km/h   87% 0 mm WeatherDisplay:10.37 W/m2 BKN
00:20 23.1 °C 20.8 °C 1019.5 hPa NE 7.4 km/h   87% 0 mm WeatherDisplay:10.37 W/m2 FEW
00:26 23.1 °C 20.8 °C 1019.9 hPa NE 7.4 km/h   87% 0 mm WeatherDisplay:10.37 W/m2 FEW
00:31 23 °C 20.7 °C 1019.5 hPa NE 7.4 km/h   87% 0 mm WeatherDisplay:10.37 W/m2 FEW
00:36 23 °C 20.7 °C 1019.5 hPa NE 7.4 km/h   87% 0 mm WeatherDisplay:10.37 W/m2 FEW
00:41 23 °C 20.9 °C 1019.5 hPa NE 7.4 km/h   88% 0 mm WeatherDisplay:10.37 W/m2 FEW
00:45 23 °C 20.9 °C 1019.5 hPa Calm     88% 0 mm WeatherDisplay:10.37 W/m2 FEW
00:50 23 °C 20.9 °C 1019.5 hPa Calm     88% 0 mm WeatherDisplay:10.37 W/m2 FEW
00:55 23 °C 20.9 °C 1019.5 hPa Calm     88% 0 mm WeatherDisplay:10.37 W/m2 FEW
01:00 22.9 °C 20.8 °C 1019.5 hPa Calm     88% 0 mm WeatherDisplay:10.37 W/m2 FEW
01:05 22.9 °C 20.7 °C 1019.5 hPa Calm     87% 0 mm WeatherDisplay:10.37 W/m2 FEW
01:10 22.9 °C 20.7 °C 1019.5 hPa Calm     87% 0 mm WeatherDisplay:10.37 W/m2 FEW
01:15 22.9 °C 20.7 °C 1019.5 hPa Calm     87% 0 mm WeatherDisplay:10.37 W/m2 FEW
01:20 22.9 °C 20.6 °C 1019.5 hPa Calm     87% 0 mm WeatherDisplay:10.37 W/m2 SCT
01:25 22.9 °C 20.7 °C 1019.5 hPa Calm     87% 0 mm WeatherDisplay:10.37 W/m2 SCT
01:30 23 °C 20.7 °C 1019.5 hPa Calm     87% 0 mm WeatherDisplay:10.37 W/m2 SCT
01:35 22.9 °C 20.7 °C 1019.5 hPa NE 7.4 km/h   87% 0 mm WeatherDisplay:10.37 W/m2 SCT
01:40 22.9 °C 20.6 °C 1019.5 hPa Calm     87% 0 mm WeatherDisplay:10.37 W/m2 SCT
01:45 22.8 °C 20.8 °C 1019.5 hPa Calm     88% 0 mm WeatherDisplay:10.37 W/m2 SCT
01:50 22.8 °C 20.7 °C 1019.5 hPa Calm     88% 0 mm WeatherDisplay:10.37 W/m2 SCT
01:55 22.8 °C 20.7 °C 1019.5 hPa Calm     88% 0 mm WeatherDisplay:10.37 W/m2 SCT
02:00 22.3 °C 20.2 °C 1019.5 hPa Calm     88% 0 mm WeatherDisplay:10.37 W/m2 SCT
02:05 22.3 °C 20.2 °C 1019.2 hPa NE 7.4 km/h   88% 0 mm WeatherDisplay:10.37 W/m2 SCT
02:10 22.3 °C 20.2 °C 1019.2 hPa Calm     88% 0 mm WeatherDisplay:10.37 W/m2 SCT
02:15 22.3 °C 20.2 °C 1019.5 hPa Calm     88% 0 mm WeatherDisplay:10.37 W/m2 SCT
02:20 22.3 °C 20.2 °C 1019.2 hPa Calm     88% 0 mm WeatherDisplay:10.37 W/m2 FEW
02:25 22.3 °C 20.2 °C 1019.2 hPa Calm     88% 0 mm WeatherDisplay:10.37 W/m2 FEW
02:30 22.3 °C 20.2 °C 1019.2 hPa Calm     88% 0 mm WeatherDisplay:10.37 W/m2 FEW
02:35 22.3 °C 20.2 °C 1019.2 hPa Calm     88% 0 mm WeatherDisplay:10.37 W/m2 FEW
02:40 22.3 °C 20.2 °C 1019.2 hPa Calm     88% 0 mm WeatherDisplay:10.37 W/m2 FEW
02:41 22.3 °C 20.2 °C 1019.2 hPa North 7.4 km/h   88% 0 mm WeatherDisplay:10.37 W/m2 FEW
02:46 22.3 °C 20.2 °C 1019.2 hPa North 7.4 km/h   88% 0 mm WeatherDisplay:10.37 W/m2 FEW
02:51 22.3 °C 20.2 °C 1019.2 hPa North 7.4 km/h   88% 0 mm WeatherDisplay:10.37 W/m2 FEW
02:56 22.3 °C 20.2 °C 1019.2 hPa North 7.4 km/h   88% 0 mm WeatherDisplay:10.37 W/m2 FEW
03:01 22.3 °C 20.2 °C 1019.2 hPa North 7.4 km/h   88% 0 mm WeatherDisplay:10.37 W/m2 FEW
03:06 22.3 °C 20.2 °C 1019.2 hPa North 7.4 km/h   88% 0 mm WeatherDisplay:10.37 W/m2 FEW
03:11 22.3 °C 20.2 °C 1018.8 hPa North 7.4 km/h   88% 0 mm WeatherDisplay:10.37 W/m2 FEW
03:16 22.3 °C 20.2 °C 1018.8 hPa North 7.4 km/h   88% 0 mm WeatherDisplay:10.37 W/m2 FEW
03:19 22.3 °C 20.2 °C 1018.8 hPa North 7.4 km/h   88% 0 mm WeatherDisplay:10.37 W/m2 FEW
03:24 22.3 °C 20.2 °C 1018.8 hPa North 7.4 km/h   88% 0 mm WeatherDisplay:10.37 W/m2 FEW
03:29 22.3 °C 20.2 °C 1018.8 hPa North 7.4 km/h   88% 0 mm WeatherDisplay:10.37 W/m2 FEW
03:34 22.3 °C 20.2 °C 1018.8 hPa North 7.4 km/h   88% 0 mm WeatherDisplay:10.37 W/m2 FEW
03:39 22.3 °C 20.2 °C 1018.8 hPa North 7.4 km/h   88% 0 mm WeatherDisplay:10.37 W/m2 FEW
03:44 22.3 °C 20.2 °C 1018.8 hPa North 7.4 km/h   88% 0 mm WeatherDisplay:10.37 W/m2 FEW
03:49 22.3 °C 20.2 °C 1018.8 hPa North 7.4 km/h   88% 0 mm WeatherDisplay:10.37 W/m2 FEW
03:54 22.3 °C 20.2 °C 1018.8 hPa North 7.4 km/h   88% 0 mm WeatherDisplay:10.37 W/m2 FEW
03:59 22.3 °C 20.2 °C 1018.8 hPa North 7.4 km/h   88% 0 mm WeatherDisplay:10.37 W/m2 FEW
04:04 22.3 °C 20.2 °C 1018.8 hPa North 7.4 km/h   88% 0 mm WeatherDisplay:10.37 W/m2 FEW
04:09 22.3 °C 20.2 °C 1018.8 hPa North 7.4 km/h   88% 0 mm WeatherDisplay:10.37 W/m2 FEW
04:14 22.3 °C 20.2 °C 1018.8 hPa North 7.4 km/h   88% 0 mm WeatherDisplay:10.37 W/m2 FEW
04:19 22.3 °C 20.2 °C 1018.8 hPa North 7.4 km/h   88% 0 mm WeatherDisplay:10.37 W/m2 FEW
04:24 22.3 °C 20.2 °C 1018.8 hPa North 7.4 km/h   88% 0 mm WeatherDisplay:10.37 W/m2 CLR
04:29 22.3 °C 20.2 °C 1018.5 hPa North 7.4 km/h   88% 0 mm WeatherDisplay:10.37 W/m2 CLR
04:35 22.3 °C 20.2 °C 1018.5 hPa North 7.4 km/h   88% 0 mm WeatherDisplay:10.37 W/m2 CLR
04:40 22.3 °C 20.2 °C 1018.5 hPa North 7.4 km/h   88% 0 mm WeatherDisplay:10.37 W/m2 CLR
04:45 22.3 °C 20.2 °C 1018.5 hPa North 7.4 km/h   88% 0 mm WeatherDisplay:10.37 W/m2 CLR
04:50 22.3 °C 20.2 °C 1018.5 hPa North 7.4 km/h   88% 0 mm WeatherDisplay:10.37 W/m2 CLR
04:55 22.3 °C 20.2 °C 1018.5 hPa Calm     88% 0 mm WeatherDisplay:10.37 W/m2 CLR
04:56 22.3 °C 20.2 °C 1018.5 hPa North 7.4 km/h   88% 0 mm WeatherDisplay:10.37 W/m2 CLR
05:01 22.3 °C 20.2 °C 1018.5 hPa North 7.4 km/h   88% 0 mm WeatherDisplay:10.37 W/m2 CLR
05:06 22.3 °C 20.2 °C 1018.5 hPa North 7.4 km/h   88% 0 mm WeatherDisplay:10.37 W/m2 CLR
05:11 22.3 °C 20.2 °C 1018.5 hPa North 7.4 km/h   88% 0 mm WeatherDisplay:10.37 W/m2 CLR
05:16 22.3 °C 20.2 °C 1018.5 hPa North 7.4 km/h   88% 0 mm WeatherDisplay:10.37 W/m2 CLR
05:21 22.3 °C 20.2 °C 1018.5 hPa North 7.4 km/h   88% 0 mm WeatherDisplay:10.37 W/m2 CLR
05:26 22.3 °C 20.2 °C 1018.5 hPa North 7.4 km/h   88% 0 mm WeatherDisplay:10.37 W/m2 CLR
05:31 22.3 °C 20.2 °C 1018.5 hPa North 7.4 km/h   88% 0 mm WeatherDisplay:10.37 W/m2 CLR
05:36 22.3 °C 20.2 °C 1018.5 hPa North 7.4 km/h   88% 0 mm WeatherDisplay:10.37 W/m2 CLR
05:42 22.3 °C 20.2 °C 1018.5 hPa North 7.4 km/h   88% 0 mm WeatherDisplay:10.37 W/m2 CLR
05:47 22.3 °C 20.2 °C 1018.8 hPa North 7.4 km/h   88% 0 mm WeatherDisplay:10.37 W/m2 CLR
05:52 22.3 °C 20.2 °C 1018.5 hPa North 7.4 km/h   88% 0 mm WeatherDisplay:10.37 W/m2 CLR
05:57 22.3 °C 20.2 °C 1018.8 hPa North 7.4 km/h   88% 0 mm WeatherDisplay:10.37 W/m2 CLR
06:02 22.3 °C 20.2 °C 1018.8 hPa North 7.4 km/h   88% 0 mm WeatherDisplay:10.37 W/m2 CLR
06:07 22.3 °C 20.2 °C 1018.8 hPa North 7.4 km/h   88% 0 mm WeatherDisplay:10.37 W/m2 CLR
06:12 22.3 °C 20.2 °C 1018.8 hPa North 7.4 km/h   88% 0 mm WeatherDisplay:10.37 W/m2 CLR
06:13 22.3 °C 20.2 °C 1018.8 hPa North 7.4 km/h   88% 0 mm WeatherDisplay:10.37 W/m2 CLR
06:18 22.3 °C 20.2 °C 1018.8 hPa North 7.4 km/h   88% 0 mm WeatherDisplay:10.37 W/m2 CLR
06:23 22.3 °C 20.2 °C 1018.8 hPa North 7.4 km/h   88% 0 mm WeatherDisplay:10.37 W/m2 CLR
06:28 22.3 °C 20.2 °C 1018.8 hPa North 7.4 km/h   88% 0 mm WeatherDisplay:10.37 W/m2 CLR
06:33 22.3 °C 20.2 °C 1018.8 hPa North 7.4 km/h   88% 0 mm WeatherDisplay:10.37 W/m2 CLR
06:38 22.3 °C 20.2 °C 1018.8 hPa North 7.4 km/h   88% 0 mm WeatherDisplay:10.37 W/m2 CLR
06:43 22.3 °C 20.2 °C 1018.8 hPa North 7.4 km/h   88% 0 mm WeatherDisplay:10.37 W/m2 CLR
06:49 22.3 °C 20.2 °C 1018.8 hPa North 7.4 km/h   88% 0 mm WeatherDisplay:10.37 W/m2 CLR
06:54 22.3 °C 20.2 °C 1018.8 hPa North 7.4 km/h   88% 0 mm WeatherDisplay:10.37 W/m2 CLR
06:59 22.3 °C 20.2 °C 1018.8 hPa North 7.4 km/h   88% 0 mm WeatherDisplay:10.37 W/m2 CLR
07:04 22.3 °C 20.2 °C 1018.8 hPa North 7.4 km/h   88% 0 mm WeatherDisplay:10.37 W/m2 CLR
07:09 22.3 °C 20.2 °C 1018.8 hPa North 7.4 km/h   88% 0 mm WeatherDisplay:10.37 W/m2 CLR
07:14 22.3 °C 20.2 °C 1018.8 hPa North 7.4 km/h   88% 0 mm WeatherDisplay:10.37 W/m2 CLR
07:19 22.3 °C 20.2 °C 1019.2 hPa North 7.4 km/h   88% 0 mm WeatherDisplay:10.37 W/m2 CLR
07:24 22.3 °C 20.2 °C 1019.2 hPa North 7.4 km/h   88% 0 mm WeatherDisplay:10.37 W/m2 BKN
07:29 22.3 °C 20.2 °C 1019.2 hPa North 7.4 km/h   88% 0 mm WeatherDisplay:10.37 W/m2 BKN
07:34 22.3 °C 20.2 °C 1019.2 hPa North 7.4 km/h   88% 0 mm WeatherDisplay:10.37 W/m2 BKN
07:39 22.3 °C 20.2 °C 1019.2 hPa North 7.4 km/h   88% 0 mm WeatherDisplay:10.37 W/m2 BKN
07:44 22.3 °C 20.2 °C 1019.2 hPa North 7.4 km/h   88% 0 mm WeatherDisplay:10.37 W/m2 BKN
07:49 22.3 °C 20.2 °C 1019.2 hPa North 7.4 km/h   88% 0 mm WeatherDisplay:10.37 W/m2 BKN
07:54 22.3 °C 20.2 °C 1019.2 hPa North 7.4 km/h   88% 0 mm WeatherDisplay:10.37 W/m2 BKN
07:59 22.3 °C 20.2 °C 1019.2 hPa North 7.4 km/h   88% 0 mm WeatherDisplay:10.37 W/m2 BKN
08:05 22.3 °C 20.2 °C 1019.2 hPa North 7.4 km/h   88% 0 mm WeatherDisplay:10.37 W/m2 BKN
08:10 22.3 °C 20.2 °C 1019.2 hPa North 7.4 km/h   88% 0 mm WeatherDisplay:10.37 W/m2 BKN
08:15 22.3 °C 20.2 °C 1019.2 hPa North 7.4 km/h   88% 0 mm WeatherDisplay:10.37 W/m2 BKN
08:20 22.3 °C 20.2 °C 1019.2 hPa Calm     88% 0 mm WeatherDisplay:10.37 W/m2 BKN
08:25 22.3 °C 20.2 °C 1019.2 hPa Calm     88% 0 mm WeatherDisplay:10.37 W/m2 BKN
08:30 22.3 °C 20.2 °C 1019.5 hPa Calm     88% 0 mm WeatherDisplay:10.37 W/m2 BKN
08:35 22.3 °C 20.2 °C 1019.5 hPa North 7.4 km/h   88% 0 mm WeatherDisplay:10.37 W/m2 BKN
08:40 22.3 °C 20.2 °C 1019.5 hPa North 7.4 km/h   88% 0 mm WeatherDisplay:10.37 W/m2 BKN
08:45 22.3 °C 20.2 °C 1019.5 hPa North 7.4 km/h   88% 0 mm WeatherDisplay:10.37 W/m2 BKN
08:50 22.3 °C 20.2 °C 1019.5 hPa North 7.4 km/h   88% 0 mm WeatherDisplay:10.37 W/m2 BKN
08:55 22.3 °C 20.2 °C 1019.5 hPa North 7.4 km/h   88% 0 mm WeatherDisplay:10.37 W/m2 BKN
09:00 22.3 °C 20.2 °C 1019.5 hPa North 7.4 km/h   88% 0 mm WeatherDisplay:10.37 W/m2 BKN
09:05 23 °C 21.4 °C 1019.5 hPa North 7.4 km/h   91% 0 mm WeatherDisplay:10.37 W/m2 BKN
09:10 23.1 °C 21.4 °C 1019.5 hPa North 7.4 km/h   90% 0 mm WeatherDisplay:10.37 W/m2 BKN
09:15 23.3 °C 21.6 °C 1019.5 hPa North 7.4 km/h   90% 0 mm WeatherDisplay:10.37 W/m2 BKN
09:20 23.3 °C 21.4 °C 1019.9 hPa North 7.4 km/h   89% 0 mm WeatherDisplay:10.37 W/m2 BKN
09:26 23.5 °C 21.6 °C 1019.5 hPa North 7.4 km/h   89% 0 mm WeatherDisplay:10.37 W/m2 BKN
09:31 23.6 °C 21.7 °C 1019.5 hPa North 7.4 km/h   89% 0 mm WeatherDisplay:10.37 W/m2 BKN
09:36 23.8 °C 21.7 °C 1019.5 hPa SW 7.4 km/h   88% 0 mm WeatherDisplay:10.37 W/m2 BKN
09:41 24 °C 21.7 °C 1019.5 hPa SW 7.4 km/h   87% 0 mm WeatherDisplay:10.37 W/m2 BKN
09:46 24.2 °C 21.9 °C 1019.5 hPa SW 7.4 km/h   87% 0 mm WeatherDisplay:10.37 W/m2 BKN
09:51 24.4 °C 21.7 °C 1019.5 hPa SW 7.4 km/h   85% 0 mm WeatherDisplay:10.37 W/m2 BKN
09:56 24.6 °C 22.1 °C 1019.5 hPa SW 7.4 km/h   86% 0 mm WeatherDisplay:10.37 W/m2 BKN
10:01 24.6 °C 21.7 °C 1019.5 hPa SW 7.4 km/h   84% 0 mm WeatherDisplay:10.37 W/m2 BKN
10:06 24.8 °C 22.1 °C 1019.5 hPa SW 7.4 km/h   85% 0 mm WeatherDisplay:10.37 W/m2 BKN
10:11 24.8 °C 21.9 °C 1019.2 hPa SW 7.4 km/h 7.4 km/h 84% 0 mm WeatherDisplay:10.37 W/m2 BKN
10:16 25 °C 22.1 °C 1019.5 hPa SW 7.4 km/h   84% 0 mm WeatherDisplay:10.37 W/m2 BKN
10:21 25.1 °C 22.2 °C 1019.5 hPa SW 7.4 km/h   84% 0 mm WeatherDisplay:10.37 W/m2 BKN
10:26 25.2 °C 22.3 °C 1019.2 hPa SW 7.4 km/h   84% 0 mm WeatherDisplay:10.37 W/m2 BKN
10:31 25.3 °C 22.4 °C 1019.2 hPa SW 7.4 km/h   84% 0 mm WeatherDisplay:10.37 W/m2 BKN
10:36 25.4 °C 22.6 °C 1019.2 hPa SW 7.4 km/h   84% 0 mm WeatherDisplay:10.37 W/m2 BKN
10:41 25.4 °C 22.3 °C 1019.5 hPa SW 7.4 km/h   83% 0 mm WeatherDisplay:10.37 W/m2 BKN
10:46 25.5 °C 22.2 °C 1019.2 hPa SW 7.4 km/h   82% 0 mm WeatherDisplay:10.37 W/m2 BKN
10:51 25.6 °C 22.3 °C 1019.2 hPa SW 7.4 km/h   82% 0 mm WeatherDisplay:10.37 W/m2 BKN
10:56 25.7 °C 22.2 °C 1019.2 hPa SW 7.4 km/h 7.4 km/h 81% 0 mm WeatherDisplay:10.37 W/m2 BKN
11:01 25.9 °C 22.6 °C 1019.2 hPa SW 7.4 km/h   82% 0 mm WeatherDisplay:10.37 W/m2 BKN
11:06 26.1 °C 22.6 °C 1019.2 hPa SW 7.4 km/h   81% 0 mm WeatherDisplay:10.37 W/m2 BKN
11:12 26.3 °C 22.6 °C 1019.2 hPa SW 7.4 km/h   80% 0 mm WeatherDisplay:10.37 W/m2 BKN
11:17 26.4 °C 22.7 °C 1019.2 hPa SW 7.4 km/h   80% 0 mm WeatherDisplay:10.37 W/m2 BKN
11:22 26.8 °C 22.9 °C 1019.2 hPa West 7.4 km/h   79% 0 mm WeatherDisplay:10.37 W/m2 BKN
11:27 27.1 °C 22.7 °C 1019.2 hPa West 7.4 km/h   77% 0 mm WeatherDisplay:10.37 W/m2 BKN
11:32 27.2 °C 22.8 °C 1018.8 hPa West 7.4 km/h   77% 0 mm WeatherDisplay:10.37 W/m2 BKN
11:34 27.3 °C 23.1 °C 1018.8 hPa West 7.4 km/h   78% 0 mm WeatherDisplay:10.37 W/m2 BKN
11:39 27.6 °C 22.9 °C 1018.8 hPa West 7.4 km/h   76% 0 mm WeatherDisplay:10.37 W/m2 BKN
11:44 27.8 °C 23 °C 1018.8 hPa NNW 7.4 km/h   75% 0 mm WeatherDisplay:10.37 W/m2 BKN
11:49 27.9 °C 23.3 °C 1018.8 hPa NNW 7.4 km/h   76% 0 mm WeatherDisplay:10.37 W/m2 BKN
11:54 27.9 °C 23.5 °C 1018.8 hPa NNW 7.4 km/h   77% 0 mm WeatherDisplay:10.37 W/m2 BKN
11:59 27.8 °C 23 °C 1018.8 hPa NNW 7.4 km/h   75% 0 mm WeatherDisplay:10.37 W/m2 BKN
12:04 27.8 °C 22.8 °C 1018.8 hPa NNW 7.4 km/h   74% 0 mm WeatherDisplay:10.37 W/m2 BKN
12:09 27.8 °C 22.9 °C 1018.8 hPa NNW 7.4 km/h   75% 0 mm WeatherDisplay:10.37 W/m2 BKN
12:14 27.8 °C 22.9 °C 1018.8 hPa NNW 7.4 km/h   75% 0 mm WeatherDisplay:10.37 W/m2 BKN
12:19 27.8 °C 23 °C 1018.5 hPa NNW 7.4 km/h   75% 0 mm WeatherDisplay:10.37 W/m2 BKN
12:24 27.9 °C 23.1 °C 1018.5 hPa NNW 7.4 km/h   75% 0 mm WeatherDisplay:10.37 W/m2 BKN
12:29 28 °C 23.2 °C 1018.5 hPa NNW 7.4 km/h   75% 0 mm WeatherDisplay:10.37 W/m2 BKN
12:34 28.2 °C 23.1 °C 1018.5 hPa NNW 7.4 km/h   74% 0 mm WeatherDisplay:10.37 W/m2 BKN
12:39 28.3 °C 23.4 °C 1018.5 hPa NNW 7.4 km/h   75% 0 mm WeatherDisplay:10.37 W/m2 BKN
12:44 28.4 °C 23.1 °C 1018.5 hPa NNW 7.4 km/h   73% 0 mm WeatherDisplay:10.37 W/m2 BKN
12:49 28.6 °C 22.6 °C 1018.5 hPa NNW 7.4 km/h   70% 0 mm WeatherDisplay:10.37 W/m2 BKN
12:55 28.6 °C 23.4 °C 1018.5 hPa SSW 7.4 km/h   74% 0 mm WeatherDisplay:10.37 W/m2 BKN
13:00 28.6 °C 23.2 °C 1018.5 hPa SSW 7.4 km/h   73% 0 mm WeatherDisplay:10.37 W/m2 BKN
13:05 28.7 °C 23.8 °C 1018.2 hPa SSW 7.4 km/h   75% 0 mm WeatherDisplay:10.37 W/m2 BKN
13:10 28.7 °C 24.1 °C 1018.2 hPa Calm     76% 0 mm WeatherDisplay:10.37 W/m2 BKN
13:15 28.6 °C 23.3 °C 1018.2 hPa Calm     73% 0 mm WeatherDisplay:10.37 W/m2 BKN
13:20 28.6 °C 23.5 °C 1018.2 hPa Calm     74% 0 mm WeatherDisplay:10.37 W/m2 BKN
13:25 28.4 °C 23.3 °C 1018.2 hPa SSW 7.4 km/h   74% 0 mm WeatherDisplay:10.37 W/m2 BKN
13:30 28.4 °C 22.8 °C 1017.8 hPa Calm     72% 0 mm WeatherDisplay:10.37 W/m2 BKN
13:35 28.6 °C 23.4 °C 1017.8 hPa Calm     74% 0 mm WeatherDisplay:10.37 W/m2 BKN
13:40 28.7 °C 23.3 °C 1017.8 hPa Calm   1.6 km/h 73% 0 mm WeatherDisplay:10.37 W/m2 BKN
13:45 28.7 °C 23.6 °C 1017.8 hPa SSW 7.4 km/h   74% 0 mm WeatherDisplay:10.37 W/m2 BKN
13:50 29 °C 23.4 °C 1017.5 hPa Calm   1.6 km/h 72% 0 mm WeatherDisplay:10.37 W/m2 BKN
13:55 29.3 °C 23.5 °C 1017.5 hPa Calm   1.6 km/h 71% 0 mm WeatherDisplay:10.37 W/m2 BKN
13:56 29.3 °C 23.1 °C 1017.5 hPa SW 7.4 km/h   69% 0 mm WeatherDisplay:10.37 W/m2 BKN
14:01 29.4 °C 23.1 °C 1017.5 hPa WNW 7.4 km/h 7.4 km/h 69% 0 mm WeatherDisplay:10.37 W/m2 BKN
14:02 29.3 °C 23.1 °C 1017.5 hPa WNW 7.4 km/h   69% 0 mm WeatherDisplay:10.37 W/m2 BKN
14:07 29.3 °C 23.2 °C 1017.5 hPa WNW 7.4 km/h   70% 0 mm WeatherDisplay:10.37 W/m2 BKN
14:12 29.2 °C 23.2 °C 1017.5 hPa WNW 7.4 km/h   70% 0 mm WeatherDisplay:10.37 W/m2 BKN
14:16 29.2 °C 24.1 °C 1017.5 hPa WNW 7.4 km/h   74% 0 mm WeatherDisplay:10.37 W/m2 BKN
14:21 29.1 °C 24 °C 1017.5 hPa WNW 7.4 km/h   74% 0 mm WeatherDisplay:10.37 W/m2 BKN
14:26 28.9 °C 23.8 °C 1017.2 hPa WNW 7.4 km/h   74% 0 mm WeatherDisplay:10.37 W/m2 BKN
14:31 28.9 °C 23.8 °C 1017.2 hPa WNW 7.4 km/h   74% 0 mm WeatherDisplay:10.37 W/m2 BKN
14:36 28.9 °C 23.8 °C 1017.2 hPa WNW 7.4 km/h   74% 0 mm WeatherDisplay:10.37 W/m2 BKN
14:41 29.1 °C 23.7 °C 1017.2 hPa WNW 7.4 km/h   73% 0 mm WeatherDisplay:10.37 W/m2 BKN
14:46 29.3 °C 23.9 °C 1016.8 hPa WNW 7.4 km/h   73% 0 mm WeatherDisplay:10.37 W/m2 BKN
14:51 29.5 °C 22.9 °C 1016.8 hPa SSW 7.4 km/h 7.4 km/h 68% 0 mm WeatherDisplay:10.37 W/m2 BKN
14:56 29.7 °C 23.1 °C 1016.8 hPa WSW 7.4 km/h 7.4 km/h 68% 0 mm WeatherDisplay:10.37 W/m2 BKN
15:01 29.9 °C 23.1 °C 1016.8 hPa NW 7.4 km/h   67% 0 mm WeatherDisplay:10.37 W/m2 BKN
15:06 29.9 °C 22.8 °C 1016.8 hPa NNW 7.4 km/h 7.4 km/h 66% 0 mm WeatherDisplay:10.37 W/m2 BKN
15:11 29.9 °C 23.3 °C 1016.8 hPa SW 7.4 km/h   68% 0 mm WeatherDisplay:10.37 W/m2 BKN
15:16 29.8 °C 23.5 °C 1016.8 hPa WNW 7.4 km/h   69% 0 mm WeatherDisplay:10.37 W/m2 BKN
15:21 29.7 °C 23.4 °C 1016.8 hPa WNW 7.4 km/h   69% 0 mm WeatherDisplay:10.37 W/m2 BKN
15:26 29.6 °C 23.7 °C 1016.8 hPa WNW 7.4 km/h   71% 0 mm WeatherDisplay:10.37 W/m2 BKN
15:32 29.3 °C 23.1 °C 1016.8 hPa West 7.4 km/h   69% 0 mm WeatherDisplay:10.37 W/m2 BKN
15:37 29.1 °C 22.8 °C 1016.8 hPa NW 7.4 km/h   69% 0 mm WeatherDisplay:10.37 W/m2 BKN
15:42 28.7 °C 22.4 °C 1017.2 hPa West 8.2 km/h   69% 0 mm WeatherDisplay:10.37 W/m2 BKN
15:47 27.9 °C 22.2 °C 1017.2 hPa SW 13.2 km/h 13.2 km/h 71% 0 mm WeatherDisplay:10.37 W/m2 BKN
15:52 26.9 °C 21 °C 1017.2 hPa WNW 13.2 km/h 13.2 km/h 70% 0 mm WeatherDisplay:10.37 W/m2 BKN
15:57 26.2 °C 20.9 °C 1017.5 hPa West 13.2 km/h 13.2 km/h 73% 0 mm WeatherDisplay:10.37 W/m2 BKN
16:02 25.4 °C 21.1 °C 1017.5 hPa NNW 13.2 km/h 13.2 km/h 77% 0 mm WeatherDisplay:10.37 W/m2 BKN
16:07 24.7 °C 20.8 °C 1017.5 hPa SSW 13.2 km/h 13.2 km/h 79% 0 mm WeatherDisplay:10.37 W/m2 BKN
16:12 24.1 °C 20.8 °C 1017.2 hPa WNW 13.2 km/h   82% 0 mm WeatherDisplay:10.37 W/m2 BKN
16:17 23.8 °C 20.9 °C 1016.8 hPa WNW 13.2 km/h   84% 0 mm WeatherDisplay:10.37 W/m2 BKN
16:22 23.7 °C 21 °C 1016.8 hPa WNW 13.2 km/h   85% 0 mm WeatherDisplay:10.37 W/m2 OVC
16:27 23.6 °C 20.9 °C 1016.8 hPa WNW 13.2 km/h   85% 0 mm WeatherDisplay:10.37 W/m2 OVC
16:32 23.4 °C 20.9 °C 1016.5 hPa West 13.2 km/h   86% 0 mm WeatherDisplay:10.37 W/m2 OVC
16:37 23.4 °C 20.9 °C 1016.5 hPa West 13.2 km/h   86% 0 mm WeatherDisplay:10.37 W/m2 OVC
16:43 23.4 °C 20.9 °C 1016.1 hPa West 13.2 km/h   86% 0 mm WeatherDisplay:10.37 W/m2 OVC
16:48 23.4 °C 21.2 °C 1016.1 hPa West 13.2 km/h   87% 0 mm WeatherDisplay:10.37 W/m2 OVC
16:53 23.5 °C 21 °C 1016.1 hPa West 13.2 km/h   86% 0 mm WeatherDisplay:10.37 W/m2 OVC
16:58 23.6 °C 21.1 °C 1016.1 hPa West 13.2 km/h   86% 0 mm WeatherDisplay:10.37 W/m2 OVC
17:03 23.6 °C 21.1 °C 1016.1 hPa West 13.2 km/h   86% 0 mm WeatherDisplay:10.37 W/m2 OVC
17:08 23.7 °C 21.2 °C 1016.1 hPa West 13.2 km/h   86% 0 mm WeatherDisplay:10.37 W/m2 OVC
17:13 23.8 °C 21.3 °C 1016.1 hPa West 13.2 km/h 13.2 km/h 86% 0 mm WeatherDisplay:10.37 W/m2 OVC
17:18 23.9 °C 21.4 °C 1016.1 hPa West 13.2 km/h   86% 0 mm WeatherDisplay:10.37 W/m2 OVC
17:23 24.1 °C 21.8 °C 1016.1 hPa West 13.2 km/h   87% 0 mm WeatherDisplay:10.37 W/m2 OVC
17:28 24.2 °C 21.9 °C 1016.1 hPa West 13.2 km/h   87% 0 mm WeatherDisplay:10.37 W/m2 OVC
17:33 24.3 °C 21.8 °C 1015.8 hPa West 13.2 km/h   86% 0 mm WeatherDisplay:10.37 W/m2 OVC
17:38 24.4 °C 21.9 °C 1015.8 hPa West 13.2 km/h 13.2 km/h 86% 0 mm WeatherDisplay:10.37 W/m2 OVC
17:43 24.6 °C 22.1 °C 1015.8 hPa West 13.2 km/h   86% 0 mm WeatherDisplay:10.37 W/m2 OVC
17:48 24.7 °C 22.1 °C 1015.8 hPa ESE 13.2 km/h   85% 0 mm WeatherDisplay:10.37 W/m2 OVC
17:53 24.9 °C 22 °C 1015.8 hPa SE 13.2 km/h   84% 0 mm WeatherDisplay:10.37 W/m2 OVC
17:58 25 °C 21.7 °C 1015.5 hPa ESE 13.2 km/h 13.2 km/h 82% 0 mm WeatherDisplay:10.37 W/m2 OVC
18:04 25.1 °C 21.2 °C 1015.5 hPa NNW 13.2 km/h   79% 0 mm WeatherDisplay:10.37 W/m2 OVC
18:09 25.1 °C 21.2 °C 1015.5 hPa NNW 13.2 km/h   79% 0 mm WeatherDisplay:10.37 W/m2 OVC
18:14 25.2 °C 21.3 °C 1015.5 hPa North 13.2 km/h 13.2 km/h 79% 0 mm WeatherDisplay:10.37 W/m2 OVC
18:19 25.2 °C 21.3 °C 1015.5 hPa North 13.2 km/h 13.2 km/h 79% 0 mm WeatherDisplay:10.37 W/m2 OVC
18:24 25.3 °C 21.6 °C 1015.8 hPa North 13.2 km/h   80% 0 mm WeatherDisplay:10.37 W/m2 OVC
18:29 25.3 °C 21.6 °C 1015.8 hPa North 13.2 km/h   80% 0 mm WeatherDisplay:10.37 W/m2 OVC
18:34 25.3 °C 21.8 °C 1015.8 hPa North 13.2 km/h   81% 0 mm WeatherDisplay:10.37 W/m2 OVC
18:39 25.2 °C 21.7 °C 1015.8 hPa North 13.2 km/h   81% 0 mm WeatherDisplay:10.37 W/m2 OVC
18:44 25.2 °C 21.9 °C 1015.8 hPa North 13.2 km/h   82% 0 mm WeatherDisplay:10.37 W/m2 OVC
18:49 25.2 °C 22.1 °C 1015.8 hPa North 13.2 km/h   83% 0 mm WeatherDisplay:10.37 W/m2 OVC
18:54 25.1 °C 22 °C 1015.8 hPa North 13.2 km/h   83% 0 mm WeatherDisplay:10.37 W/m2 OVC
18:59 25.1 °C 22 °C 1015.8 hPa North 13.2 km/h   83% 0 mm WeatherDisplay:10.37 W/m2 OVC
19:04 25.1 °C 22 °C 1015.8 hPa North 13.2 km/h   83% 0 mm WeatherDisplay:10.37 W/m2 OVC
19:09 25.1 °C 22 °C 1015.8 hPa North 13.2 km/h   83% 0 mm WeatherDisplay:10.37 W/m2 OVC
19:14 25.1 °C 22 °C 1015.8 hPa North 13.2 km/h   83% 0 mm WeatherDisplay:10.37 W/m2 OVC
19:19 25.1 °C 22 °C 1015.8 hPa North 13.2 km/h   83% 0 mm WeatherDisplay:10.37 W/m2 OVC
19:24 25.1 °C 22.2 °C 1015.8 hPa North 13.2 km/h   84% 0 mm WeatherDisplay:10.37 W/m2 OVC
19:30 25.1 °C 22.2 °C 1015.8 hPa North 13.2 km/h   84% 0 mm WeatherDisplay:10.37 W/m2 OVC
19:35 25.1 °C 22.2 °C 1015.8 hPa North 13.2 km/h   84% 0 mm WeatherDisplay:10.37 W/m2 OVC
19:40 25 °C 22.1 °C 1015.8 hPa Calm     84% 0 mm WeatherDisplay:10.37 W/m2 OVC
19:45 24.9 °C 22.1 °C 1015.8 hPa Calm     84% 0 mm WeatherDisplay:10.37 W/m2 OVC
19:50 24.8 °C 22.1 °C 1015.8 hPa Calm     85% 0 mm WeatherDisplay:10.37 W/m2 BKN
19:55 24.8 °C 22.1 °C 1016.1 hPa North 13.2 km/h   85% 0 mm WeatherDisplay:10.37 W/m2 BKN
20:00 24.7 °C 22.2 °C 1016.1 hPa North 13.2 km/h   86% 0 mm WeatherDisplay:10.37 W/m2 BKN
20:05 24.6 °C 22.1 °C 1015.8 hPa North 13.2 km/h   86% 0 mm WeatherDisplay:10.37 W/m2 BKN
20:10 24.6 °C 22.1 °C 1016.1 hPa North 13.2 km/h   86% 0 mm WeatherDisplay:10.37 W/m2 BKN
20:15 24.5 °C 22 °C 1016.1 hPa North 13.2 km/h   86% 0 mm WeatherDisplay:10.37 W/m2 BKN
20:20 24.4 °C 22.1 °C 1016.1 hPa North 13.2 km/h   87% 0 mm WeatherDisplay:10.37 W/m2 BKN
20:25 24.4 °C 22.1 °C 1016.1 hPa North 13.2 km/h   87% 0 mm WeatherDisplay:10.37 W/m2 BKN
20:30 24.3 °C 22.2 °C 1016.1 hPa North 13.2 km/h   88% 0 mm WeatherDisplay:10.37 W/m2 BKN
20:35 24.2 °C 22.1 °C 1016.1 hPa North 13.2 km/h   88% 0 mm WeatherDisplay:10.37 W/m2 BKN
20:41 24.2 °C 22.1 °C 1016.1 hPa North 13.2 km/h   88% 0 mm WeatherDisplay:10.37 W/m2 BKN
20:46 24.1 °C 22 °C 1016.1 hPa North 13.2 km/h   88% 0 mm WeatherDisplay:10.37 W/m2 BKN
20:51 24 °C 21.9 °C 1016.1 hPa North 13.2 km/h   88% 0 mm WeatherDisplay:10.37 W/m2 BKN
20:56 23.9 °C 22 °C 1016.1 hPa North 13.2 km/h   89% 0 mm WeatherDisplay:10.37 W/m2 BKN
21:01 23.9 °C 21.9 °C 1016.1 hPa North 13.2 km/h   89% 0 mm WeatherDisplay:10.37 W/m2 BKN
21:06 23.8 °C 21.8 °C 1016.1 hPa North 13.2 km/h   89% 0 mm WeatherDisplay:10.37 W/m2 BKN
21:11 23.8 °C 21.8 °C 1016.1 hPa North 13.2 km/h   89% 0 mm WeatherDisplay:10.37 W/m2 BKN
21:15 23.7 °C 21.8 °C 1016.1 hPa Calm     89% 0 mm WeatherDisplay:10.37 W/m2 BKN
21:20 23.7 °C 21.7 °C 1016.1 hPa Calm     89% 0 mm WeatherDisplay:10.37 W/m2 BKN
21:25 23.6 °C 21.7 °C 1016.1 hPa Calm     89% 0 mm WeatherDisplay:10.37 W/m2 BKN
21:30 23.6 °C 21.6 °C 1016.1 hPa Calm     89% 0 mm WeatherDisplay:10.37 W/m2 BKN
21:35 23.5 °C 21.8 °C 1016.1 hPa Calm     90% 0 mm WeatherDisplay:10.37 W/m2 BKN
21:40 23.4 °C 21.7 °C 1016.1 hPa Calm     90% 0 mm WeatherDisplay:10.37 W/m2 BKN
21:45 23.4 °C 21.7 °C 1016.1 hPa North 13.2 km/h   90% 0 mm WeatherDisplay:10.37 W/m2 BKN
21:50 23.5 °C 21.8 °C 1015.8 hPa Calm     90% 0 mm WeatherDisplay:10.37 W/m2 BKN
21:55 23.5 °C 21.8 °C 1015.8 hPa Calm     90% 0 mm WeatherDisplay:10.37 W/m2 BKN
22:00 23.5 °C 21.7 °C 1016.1 hPa Calm     90% 0 mm WeatherDisplay:10.37 W/m2 BKN
22:05 23.4 °C 21.7 °C 1016.1 hPa Calm     90% 0 mm WeatherDisplay:10.37 W/m2 BKN
22:10 23.4 °C 21.7 °C 1016.1 hPa Calm     90% 0 mm WeatherDisplay:10.37 W/m2 BKN
22:15 23.4 °C 21.7 °C 1016.1 hPa Calm     90% 0 mm WeatherDisplay:10.37 W/m2 BKN
22:20 23.4 °C 21.7 °C 1016.1 hPa Calm     90% 0 mm WeatherDisplay:10.37 W/m2 BKN
22:25 23.4 °C 21.7 °C 1016.1 hPa Calm     90% 0 mm WeatherDisplay:10.37 W/m2 BKN
22:30 23.4 °C 21.7 °C 1016.1 hPa Calm     90% 0 mm WeatherDisplay:10.37 W/m2 BKN
22:35 23.4 °C 21.7 °C 1016.1 hPa Calm     90% 0 mm WeatherDisplay:10.37 W/m2 BKN
22:40 23.4 °C 21.7 °C 1016.1 hPa Calm     90% 0 mm WeatherDisplay:10.37 W/m2 BKN
22:45 23.4 °C 21.8 °C 1016.1 hPa Calm     91% 0 mm WeatherDisplay:10.37 W/m2 BKN
22:50 23.4 °C 21.8 °C 1016.5 hPa Calm     91% 0 mm WeatherDisplay:10.37 W/m2 BKN
22:55 23.3 °C 21.6 °C 1016.5 hPa Calm     90% 0 mm WeatherDisplay:10.37 W/m2 BKN
23:00 23.3 °C 21.8 °C 1016.5 hPa North 13.2 km/h   91% 0 mm WeatherDisplay:10.37 W/m2 BKN
23:05 23.3 °C 21.6 °C 1016.5 hPa Calm     90% 0 mm WeatherDisplay:10.37 W/m2 BKN
23:10 23.3 °C 21.7 °C 1016.5 hPa Calm     91% 0 mm WeatherDisplay:10.37 W/m2 BKN
23:15 23.3 °C 21.7 °C 1016.8 hPa Calm     91% 0 mm WeatherDisplay:10.37 W/m2 BKN
23:20 23.3 °C 21.7 °C 1016.8 hPa Calm     91% 0 mm WeatherDisplay:10.37 W/m2 BKN
23:25 23.3 °C 21.7 °C 1016.8 hPa Calm     91% 0 mm WeatherDisplay:10.37 W/m2 BKN
23:30 23.2 °C 21.7 °C 1016.8 hPa North 13.2 km/h   91% 0 mm WeatherDisplay:10.37 W/m2 BKN
23:35 23.2 °C 21.7 °C 1016.8 hPa Calm     91% 0 mm WeatherDisplay:10.37 W/m2 BKN
23:40 23.2 °C 21.6 °C 1016.8 hPa Calm     91% 0 mm WeatherDisplay:10.37 W/m2 BKN
23:45 23.2 °C 21.6 °C 1016.8 hPa Calm     91% 0 mm WeatherDisplay:10.37 W/m2 BKN
23:50 23.2 °C 21.6 °C 1016.8 hPa Calm     91% 0 mm WeatherDisplay:10.37 W/m2 -RA
23:53 23.1 °C 21.6 °C 1016.5 hPa North 13.2 km/h   91% 0 mm WeatherDisplay:10.37 W/m2 -RA
23:58 23.1 °C 21.6 °C 1016.5 hPa North 13.2 km/h   91% 0 mm WeatherDisplay:10.37 W/m2 -RA
Piedmont Bend
Compliments of Weather Underground - 4 mb